DELTA 2 R/B(1) (20362 NORAD) Tracking and Keplerian Element Data

This shows tracking and keplerian element data for the satellite.

Feedback or suggestion? Click here.




ElementValue
Catalog20362
NameDELTA 2 R/B(1)
Epoch Orbit65666
Epoch Day71.22570222
Epoch Year2020
RAAN35.8055
Inclination35.6253
Eccentricity0.0001537
Argument of Perigee235.4649
Mean Anonmoly152.4826
Mean Motion16.47656705
Decay Rate0.11608607
L11 20362U 89097B 20071.22570222 .11608607 21938-5 21862-3 0 9997
L22 20362 35.6253 35.8055 0001537 235.4649 152.4826 16.47656705656668



Live tracking and technical data element details for DELTA 2 R/B(1) (NORAD 20362). DELTA 2 R/B(1) can be tracked NOW for your location showing map with azimuth and elevation plus other details from your city location.







IsCatalogInMostPopularTable: catalog: 20362, numindb: 155
Update: records affected: 1



GetName: 20362 DELTA 2 R/B(1)

Hit Count: updated at: Sun, 14 Apr 2024 23:15:38 GMT